Location: Unspecified
(0.0000°N, 0.0000°E)
Time: 12:32:40
(UTC+00:00)

ATLAS 5 CENTAUR DEB - Visible Passes

Search period start: 11 February 2026 00:00
Search period end: 21 February 2026 00:00
Orbit: 8583 x 30673 km, 10.3° (Epoch: 1 August)

Date Brightness Start Highest point End Pass type
(mag) Time Alt. Az. Time Alt. Az. Time Alt. Az.
11 Feb ? 05:20:13 10° W 08:08:15 31° W 15:19:05 10° ENE visible
12 Feb ? 04:30:29 22° W 07:14:13 43° WSW 14:20:31 10° ENE visible
13 Feb ? 02:59:06 10° W 06:17:36 56° WSW 13:22:23 10° E visible
14 Feb ? 01:56:10 10° W 05:15:22 69° WSW 12:24:12 10° E visible
15 Feb ? 00:55:33 10° W 03:51:49 81° SW 11:25:34 10° E visible
15 Feb ? 23:56:18 10° WNW 01:51:59 88° SSW 10:26:00 10° E visible
16 Feb ? 22:57:49 10° WNW 00:34:49 83° ENE 09:24:53 10° E visible
17 Feb ? 21:59:40 10° WNW 23:47:45 68° E 08:21:15 10° E visible
18 Feb ? 21:01:23 10° W 21:58:00 78° N 07:13:24 10° E visible
19 Feb ? 20:02:31 10° W 20:54:22 75° N 05:57:43 10° E visible
